ARIANE 5 R/B, 33057

Orbit data source: Space-Track

ARIANE 5 R/B, 33057 is space debris in HEO originally from a launch on Thu, 12 Jun 2008 UTC launched from the French Guiana (FRGUI). Debris objects in space refer to the collection of defunct objects orbiting the Earth. Examples of debris include non-operational satellites, rocket bodies, and fragments generated from explosions, collisions, or faulty payload assembly.

Loading next visibility...
Identifier
33057, 2008-030C
Orbit
HEO
Country
Flag of FRFR
Related business
Manufacturer
EADS/LV
Mission
Spacecraft
Bus & Motor
ESC-A, Unknown motor
Mass
~5,000 kg wet, ~5,000 kg dry
Launch date (UTC)
2008-06-12 (18 years ago)
Launch vehicle
Unknown
Launch site
French Guiana (FRGUI)
Object type
Payload
Rocket body
Debris
Shape & HBR
Cyl + 1 Nozzle, 3.5 m
Radar Cross Section
41.627 m², Large (>1 m²)

Expand to show TLE details & history
Last TLE update: 3 days ago

TLE from 3 days ago
0 ARIANE 5 R/B
1 33057U 08030C   26171.01083850  .00007357  00000-0  11287-2 0  9994
2 33057   1.9293 359.2205 7037851 272.6895  15.6073  2.60493337159307
Epoch: 2026-06-20T00:15Z
TLE epoch observation values (Epoch: 2026-06-20T00:15:36.446Z)
Latitude
-0.00016°
Longitude
87.07858°
Altitude
4,496.202 km
Speed
7.446 km/s
True Right ascension
23h 56m 50s
True Declination
0° 00' 01"
Sunlit
Object was in daylight at epoch
Visualization orbit readout
Latitude
Unknown
Longitude
Unknown
Altitude
Unknown
Speed
Unknown
Apparent Right ascension
Unknown
Apparent Declination
Unknown
Sunlit
N/A
Visualization observer readout
Local Sidereal Time
02:17:34
Azimuth
Unknown
Elevation
Unknown
Doppler factor
Unknown
Orbital elements
Apogee altitude
31,646.011 km
Perigee altitude
232.626 km
Semi-major axis
22,317.456 km
Eccentricity
0.70379
Inclination
1.9293°
RAAN
359.2205°
Arg. of periapsis
272.6895°
True anomaly
87.0683°
Mean anomaly
15.6073°
Eccentric anomaly
43.22242°
Mean motion
0.65099 °/min
Orbital period
553 mins
BSTAR
0.0011287
Loading maneuver chart data...
Computing Atmospheric mass density...
Loading historical data...
Loading historical data...
Loading historical data...
Loading historical data...
Loading historical data...
Loading historical data...
Loading historical data...

Documentation

Showing up to 5 results
|